Location: Unspecified
(0.0000°N, 0.0000°E)
Time: 09:10:50
(UTC+00:00)

ARIANE 1 DEB - Pass Details

Date: 20 February 2026
Orbit: 1090 x 21662 km, 16.1° (Epoch: 9 December)

Event Time Altitude Azimuth Distance (km) Brightness Sun altitude
Rises 19:00:49 0° 280° (W) 7,331 ? -11.6°
Reaches altitude 10° 19:03:57 10° 278° (W) 7,076 ? -12.3°
Maximum altitude 19:46:45 77° 196° (SSW) 12,061 ? -22.8°
Drops below altitude 10° 00:31:52 10° 98° (E) 11,555 ? -78.5°
Sets 00:38:34 0° 95° (E) 11,119 ? -77.7°
